YAOGAN 3                
1 32289U 07055A   19264.86024615 -.00000006  00000-0  61203-5 0  9999
2 32289  98.0033 275.3642 0001539 101.4035 258.7371 14.80973342641083
CZ-4C R/B               
1 32290U 07055B   19263.91202174  .00001010  00000-0  27945-4 0  9993
2 32290  97.6153  43.5988 0063402  64.1642 296.6123 15.37667374658528
CZ-4C DEB               
1 35248U 07055C   19264.43361291  .00000448  00000-0  82374-4 0  9994
2 35248  97.8265 120.4199 0153894   5.9679 112.9316 14.63051631627540
CZ-4C DEB               
1 35249U 07055D   19264.16510730  .00000235  00000-0  70781-4 0  9992
2 35249  97.7828 254.2290 0246223 160.0926 201.0078 14.34183698616269
CZ-4C DEB               
1 35251U 07055F   19264.45207476  .00000297  00000-0  78841-4 0  9990
2 35251  97.8647 327.5799 0202394 324.1319 100.2204 14.44214921620722